AA3CS-1 Weather Reports


Display with metric or nautical units.
time (UTC)temp
F
wind
direction
speed
MPH
gust
MPH
rain 1hr
in
rain 24hr
in
rain mn
in
humidity
%
barometer
mb
20260503233516 55 180 3.0 7.0 0.00 0.00 0.00 45 1012.9
20260503233016 55 180 3.0 12.0 0.00 0.00 0.00 46 1012.9
20260503232516 56 225 5.0 13.0 0.00 0.00 0.00 43 1012.9
20260503232016 56 225 2.0 5.0 0.00 0.00 0.00 45 1013.0
20260503231515 56 203 4.0 8.0 0.00 0.00 0.00 42 1013.0
20260503231016 56 203 4.0 11.0 0.00 0.00 0.00 44 1012.9
20260503230516 56 225 4.0 19.0 0.00 0.00 0.00 43 1013.0
20260503230015 56 225 4.0 12.0 0.00 0.00 0.00 43 1013.0
20260503225515 56 225 4.0 13.0 0.00 0.00 0.00 43 1012.9
20260503225015 56 225 4.0 10.0 0.00 0.00 0.00 42 1013.0
20260503224536 57 225 5.0 10.0 0.00 0.00 0.00 42 1013.0
20260503224016 57 248 4.0 10.0 0.00 0.00 0.00 42 1013.0
20260503223536 57 203 4.0 12.0 0.00 0.00 0.00 43 1013.1
20260503223015 57 203 3.0 6.0 0.00 0.00 0.00 43 1013.2
20260503222516 57 180 2.0 6.0 0.00 0.00 0.00 44 1013.2
20260503222015 57 225 2.0 6.0 0.00 0.00 0.00 44 1013.2
20260503221515 57 203 3.0 10.0 0.00 0.00 0.00 43 1013.2
20260503221016 57 225 3.0 10.0 0.00 0.00 0.00 44 1013.2
20260503220516 57 203 3.0 11.0 0.00 0.00 0.00 42 1013.3
20260503220015 58 203 4.0 11.0 0.00 0.00 0.00 41 1013.2
20260503215515 57 225 3.0 7.0 0.00 0.00 0.00 43 1013.2
20260503215035 57 225 3.0 12.0 0.00 0.00 0.00 43 1013.3
20260503214515 57 248 4.0 11.0 0.00 0.00 0.00 43 1013.3
20260503214055 57 180 3.0 9.0 0.00 0.00 0.00 44 1013.4
20260503213515 57 203 4.0 11.0 0.00 0.00 0.00 41 1013.4
20260503213015 57 248 4.0 11.0 0.00 0.00 0.00 39 1013.3
20260503212615 57 203 3.0 8.0 0.00 0.00 0.00 43 1013.4
20260503212015 57 270 3.0 8.0 0.00 0.00 0.00 41 1013.4
20260503211515 58 225 4.0 8.0 0.00 0.00 0.00 41 1013.5
20260503211015 59 248 6.0 15.0 0.00 0.00 0.00 40 1013.5
20260503210658 59 270 5.0 12.0 0.00 0.00 0.00 42 1013.5
20260503210017 58 248 3.0 9.0 0.00 0.00 0.00 43 1013.5
20260503205537 58 270 6.0 18.0 0.00 0.00 0.00 39 1013.5
20260503205017 59 293 7.0 17.0 0.00 0.00 0.00 40 1013.4
20260503204517 58 248 4.0 14.0 0.00 0.00 0.00 43 1013.6
20260503204018 58 248 6.0 15.0 0.00 0.00 0.00 38 1013.5
20260503203517 59 225 4.0 12.0 0.00 0.00 0.00 40 1013.6
20260503203017 60 248 4.0 10.0 0.00 0.00 0.00 38 1013.6
20260503202557 59 225 4.0 13.0 0.00 0.00 0.00 41 1013.5
20260503202017 59 203 5.0 16.0 0.00 0.00 0.00 39 1013.7
20260503201517 60 270 4.0 10.0 0.00 0.00 0.00 39 1013.9
20260503201017 59 225 5.0 13.0 0.00 0.00 0.00 43 1013.8
20260503200517 57 203 3.0 8.0 0.00 0.00 0.00 44 1013.9
20260503200017 57 225 6.0 14.0 0.00 0.00 0.00 41 1014.0
20260503195517 58 225 6.0 19.0 0.00 0.00 0.00 40 1014.0
20260503195015 58 225 6.0 12.0 0.00 0.00 0.00 42 1014.2
20260503194517 58 203 5.0 14.0 0.00 0.00 0.00 42 1014.3
20260503194017 58 180 4.0 9.0 0.00 0.00 0.00 42 1014.4
20260503193517 57 203 4.0 10.0 0.00 0.00 0.00 41 1014.5
20260503193017 58 180 5.0 12.0 0.00 0.00 0.00 42 1014.6
20260503192557 58 248 4.0 9.0 0.00 0.00 0.00 43 1014.7
20260503192017 60 203 4.0 11.0 0.00 0.00 0.00 44 1014.9
20260503191517 59 248 3.0 8.0 0.00 0.00 0.00 42 1014.8
20260503191017 58 248 4.0 12.0 0.00 0.00 0.00 42 1015.0
20260503190557 58 248 2.0 7.0 0.00 0.00 0.00 39 1015.1
20260503190017 59 270 5.0 13.0 0.00 0.00 0.00 41 1015.1
20260503185517 58 203 4.0 11.0 0.00 0.00 0.00 41 1015.2
20260503185037 58 203 5.0 12.0 0.00 0.00 0.00 39 1015.4
20260503184537 59 270 4.0 9.0 0.00 0.00 0.00 40 1015.3
20260503184017 58 248 6.0 16.0 0.00 0.00 0.00 39 1015.4
20260503183517 58 225 4.0 11.0 0.00 0.00 0.00 45 1015.5
20260503183017 57 248 4.0 11.0 0.00 0.00 0.00 45 1015.4
20260503182517 57 225 6.0 20.0 0.00 0.00 0.00 42 1015.5
20260503182017 58 293 6.0 13.0 0.00 0.00 0.00 41 1015.5
20260503181517 58 248 7.0 16.0 0.00 0.00 0.00 39 1015.5
20260503181017 58 225 3.0 11.0 0.00 0.00 0.00 46 1015.6
20260503180517 58 293 7.0 20.0 0.00 0.00 0.00 41 1015.7
20260503180017 58 293 8.0 17.0 0.00 0.00 0.00 41 1015.8
20260503175517 57 248 6.0 13.0 0.00 0.00 0.00 42 1015.8
20260503175017 57 270 7.0 20.0 0.00 0.00 0.00 44 1015.9
20260503174517 57 248 5.0 12.0 0.00 0.00 0.00 45 1015.9
20260503174017 58 203 4.0 11.0 0.00 0.00 0.00 46 1016.1
20260503173517 57 225 6.0 14.0 0.00 0.00 0.00 41 1016.0
20260503173017 57 248 5.0 18.0 0.00 0.00 0.00 44 1016.2
20260503172517 57 270 4.0 13.0 0.00 0.00 0.00 49 1016.2
20260503172017 57 270 4.0 12.0 0.00 0.00 0.00 50 1016.3
20260503171517 57 203 4.0 13.0 0.00 0.00 0.00 45 1016.4
20260503171017 57 293 5.0 16.0 0.00 0.00 0.00 47 1016.6
20260503170517 57 248 4.0 9.0 0.00 0.00 0.00 51 1016.6
20260503150557 52 293 3.0 10.0 0.00 0.01 0.00 51 1017.5
20260503131037 44 180 3.0 6.0 0.00 0.01 0.00 64 1017.7
20260503130516 44 158 2.0 4.0 0.00 0.01 0.00 65 1017.8
20260503110516 30 0.0 2.0 0.00 0.01 0.00 89 1016.7
20260503081516 30 0.0 0.0 0.00 0.01 0.00 91 1016.4
20260503081016 30 0.0 0.0 0.00 0.01 0.00 91 1016.3
20260503080516 30 0.0 0.0 0.00 0.01 0.00 91 1016.3
20260503072516 31 0.0 0.0 0.00 0.01 0.00 90 1016.4
20260503072056 31 0.0 0.0 0.00 0.01 0.00 90 1016.4
20260503071516 31 0.0 0.0 0.00 0.01 0.00 89 1016.4
20260503071016 31 0.0 0.0 0.00 0.01 0.00 88 1016.3
20260503070516 31 0.0 0.0 0.00 0.01 0.00 89 1016.3
20260503055016 34 0.0 2.0 0.00 0.01 0.00 84 1016.7
20260503054516 34 0.0 2.0 0.00 0.01 0.00 84 1016.8
20260503054016 34 0.0 0.0 0.00 0.01 0.00 83 1016.8
20260503053516 34 0.0 0.0 0.00 0.01 0.00 82 1016.7
20260503053016 35 0.0 0.0 0.00 0.01 0.00 81 1016.8
20260503052516 35 0.0 1.0 0.00 0.01 0.00 80 1016.8
20260503052016 35 0.0 0.0 0.00 0.01 0.00 80 1016.8
20260503051516 36 0.0 0.0 0.00 0.01 0.00 80 1016.8
20260503051015 36 0.0 2.0 0.00 0.01 0.00 79 1016.8
20260503050516 37 0.0 2.0 0.00 0.01 0.00 79 1016.8
20260503050016 37 0.0 2.0 0.00 0.01 0.00 79 1016.8
20260503045516 37 0.0 2.0 0.00 0.01 0.00 79 1016.8
20260503045016 37 0.0 1.0 0.00 0.01 0.00 80 1016.8
20260503044516 37 0.0 2.0 0.00 0.01 0.00 80 1016.8
20260503044016 37 0.0 2.0 0.00 0.01 0.00 80 1016.8
20260503043515 37 0.0 0.0 0.00 0.01 0.00 81 1016.8
20260503043015 37 0.0 0.0 0.00 0.01 0.00 80 1016.9
20260503042516 37 0.0 0.0 0.00 0.01 0.00 80 1016.9
20260503042016 37 0.0 2.0 0.00 0.01 0.00 80 1017.0
20260503041515 37 0.0 2.0 0.00 0.01 0.00 80 1017.0
20260503041016 37 0.0 2.0 0.00 0.01 0.00 79 1016.9
20260503040515 37 0.0 2.0 0.00 0.01 0.00 78 1016.9
20260503040016 37 0.0 2.0 0.00 0.01 0.01 79 1016.9
20260503035556 37 0.0 2.0 0.00 0.01 0.01 79 1017.0
20260503035016 37 0.0 2.0 0.00 0.01 0.01 78 1016.9
20260503034516 37 0.0 2.0 0.00 0.01 0.01 79 1017.0
20260503034016 37 0.0 2.0 0.00 0.01 0.01 80 1016.9
20260503033556 37 0.0 2.0 0.00 0.01 0.01 79 1016.9
20260503033016 37 0.0 2.0 0.00 0.01 0.01 80 1016.9
20260503032516 37 0.0 2.0 0.00 0.01 0.01 79 1017.0
20260503032016 37 0.0 1.0 0.00 0.01 0.01 79 1017.0
20260503031516 37 0.0 2.0 0.00 0.01 0.01 79 1017.0
20260503031036 37 0.0 2.0 0.00 0.01 0.01 81 1017.0
20260503030516 37 0.0 0.0 0.00 0.01 0.01 80 1017.0
20260503030016 37 0.0 2.0 0.00 0.01 0.01 81 1017.0
20260503025516 37 0.0 2.0 0.00 0.01 0.01 81 1017.1
20260503025016 37 0.0 0.0 0.00 0.01 0.01 80 1017.1
20260503024516 37 0.0 1.0 0.00 0.01 0.01 80 1017.2
20260503024016 37 0.0 0.0 0.00 0.01 0.01 79 1017.2
20260503023516 37 0.0 0.0 0.00 0.01 0.01 79 1017.2
20260503023036 37 0.0 2.0 0.00 0.01 0.01 79 1017.3
20260503022516 37 0.0 1.0 0.00 0.01 0.01 78 1017.2
20260503022016 37 0.0 2.0 0.00 0.01 0.01 78 1017.2
20260503021516 37 0.0 1.0 0.00 0.01 0.01 78 1017.3
20260503021015 37 0.0 0.0 0.00 0.01 0.01 77 1017.2
20260503020536 37 0.0 2.0 0.00 0.01 0.01 77 1017.2
20260503020016 37 0.0 2.0 0.00 0.01 0.01 77 1017.2
20260503015515 37 0.0 2.0 0.00 0.01 0.01 78 1017.2
20260503015016 37 0.0 0.0 0.00 0.01 0.01 76 1017.1
20260503014516 37 0.0 0.0 0.00 0.01 0.01 78 1017.2
20260503014016 37 0.0 0.0 0.00 0.01 0.01 77 1017.2
20260503013516 37 0.0 0.0 0.00 0.01 0.01 76 1017.2
20260503013016 37 0.0 0.0 0.00 0.01 0.01 76 1017.2
20260503012535 38 0.0 2.0 0.00 0.01 0.01 76 1017.2
20260503012036 38 0.0 0.0 0.00 0.01 0.01 76 1017.2
20260503011516 38 0.0 1.0 0.00 0.01 0.01 76 1017.2
20260503011016 38 0.0 2.0 0.00 0.01 0.01 76 1017.2
20260503010516 38 0.0 1.0 0.00 0.01 0.01 73 1017.2
20260503010016 39 0.0 0.0 0.00 0.01 0.01 73 1017.2
20260503005516 39 0.0 0.0 0.00 0.01 0.01 73 1017.2
20260503005015 39 0.0 0.0 0.00 0.01 0.01 71 1017.2
20260503004516 39 0.0 1.0 0.00 0.01 0.01 71 1017.2
20260503004016 39 0.0 2.0 0.00 0.01 0.01 69 1017.1
20260503003536 40 0.0 0.0 0.00 0.01 0.01 70 1017.2
20260503003016 40 0.0 0.0 0.00 0.01 0.01 68 1017.1
20260503002515 40 0.0 0.0 0.00 0.01 0.01 66 1017.1
20260503002015 40 0.0 0.0 0.00 0.01 0.01 65 1017.1
20260503001516 40 0.0 2.0 0.00 0.01 0.01 67 1017.2
20260503001016 40 0.0 2.0 0.00 0.01 0.01 64 1017.0
20260503000515 41 293 1.0 3.0 0.00 0.01 0.01 62 1017.0
20260503000016 41 293 1.0 3.0 0.00 0.01 0.01 61 1017.0
20260502235516 41 293 1.0 3.0 0.00 0.01 0.01 62 1017.0
20260502235016 41 293 1.0 3.0 0.00 0.01 0.01 61 1017.1
20260502234536 41 293 1.0 2.0 0.00 0.01 0.01 60 1017.0
20260502234015 41 270 2.0 4.0 0.00 0.01 0.01 61 1017.0